Preview of NWS' New Version of Forecast
This preview is not operational and should not be used for support decisions.

Regional Weather Roundup (RWR)

Issued by National Weather Service (NWS)

                            
000
ASUS43 KDMX 181506
RWRIA 

WEATHER ROUNDUP FOR IOWA
NATIONAL WEATHER SERVICE DES MOINES IA
1000 AM CDT THU APR 18 2019

NOTE: "FAIR" INDICATES FEW OR NO CLOUDS BELOW 12,000 FEET WITH NO
SIGNIFICANT WEATHER AND/OR OBSTRUCTIONS TO VISIBILITY.

* - THESE STATIONS ARE NOT NWS STATIONS...THUS NOT UNDER NWS
QUALITY CONTROL.  THEY ALSO DO NOT REPORT WEATHER SUCH 
AS PRECIPITATION OR FOG.  

IAZ001>003-012>014-020>022-031>034-043>046-181600-
   NORTHWEST IOWA
  
CITY           SKY/WX    TMP DP  RH WIND       PRES   REMARKS
CARROLL *      PTSUNNY   50  45  81 N14       29.86R                  
CHEROKEE *     CLOUDY    45  42  89 N8        29.88R                  
DENISON *      CLOUDY    46  41  81 N12       29.89R                  
LE MARS *      CLOUDY    46  46 100 NW9G16    29.88R                  
SHELDON *      CLOUDY    43  43 100 NW9       29.86R                  
SIOUX CITY     CLOUDY    48  42  80 NW15      29.89R                  
SPENCER        CLOUDY    47  40  76 N14       29.86R                  
STORM LAKE *   PTSUNNY   43  43 100 NW10      29.84R                  
$$
 
IAZ055>058-069>071-079>083-090>094-181600-
   SOUTHWEST IOWA
  
CITY           SKY/WX    TMP DP  RH WIND       PRES   REMARKS
ATLANTIC *     CLOUDY    46  43  87 N12       29.88R                  
AUDUBON *      PTSUNNY   46  39  76 CALM      29.88R                  
CLARINDA *     CLOUDY    48  39  71 N14G21    29.91S                  
COUNCIL BLFS * CLOUDY    46  46 100 NW13G20   29.90R                  
CRESTON *      CLOUDY    46  37  71 N16G22    29.85S                  
HARLAN  *      CLOUDY    46  43  87 N12G17    29.88S                  
LAMONI         CLOUDY    48  38  68 N17G26    29.83S                  
RED OAK *      CLOUDY    50  41  71 N9G17     29.90R                  
SHENANDOAH *   CLOUDY    50  41  71 N15       29.89S                  
$$
 
IAZ047>049-059>061-072>074-084-181600-
   CENTRAL IOWA
  
CITY           SKY/WX    TMP DP  RH WIND       PRES   REMARKS
AMES           CLOUDY    46  38  73 N13G22    29.83R                  
ANKENY *       CLOUDY    46  39  76 NW15G22   29.84R                  
BOONE *        CLOUDY    48  39  71 N22G30    29.82R                  
CHARITON *     CLOUDY    46  39  76 N14G23    29.81S                  
DES MOINES     CLOUDY    47  37  68 NW15G24   29.83R                  
GRINNELL*      CLOUDY    45  38  79 NW20      29.80R                  
KNOXVILLE *    CLOUDY    46  41  81 NW18G26   29.80F                  
MARSHALLTOWN   CLOUDY    46  38  73 NW17G28   29.79R                  
NEWTON *       CLOUDY    45  41  87 N16G24    29.80S                  
PELLA *        CLOUDY    46  38  73 NW14G20   29.81S                  
PERRY *        CLOUDY    47  40  79 N14       29.85R                  
$$
 
IAZ004>006-015-016-023>025-035-036-181600-
   NORTH CENTRAL IOWA
  
CITY           SKY/WX    TMP DP  RH WIND       PRES   REMARKS
ALGONA *       CLOUDY    45  41  87 N16G24    29.82R                  
CLARION *      CLOUDY    45  39  81 N17       29.82R                  
ESTHERVILLE    CLOUDY    43  38  82 N13       29.84R                  
FORT DODGE *   CLOUDY    46  38  73 N9        29.85R                  
MASON CITY     CLOUDY    43  39  86 N21G28    29.81R                  
FOREST CITY *  CLOUDY    43  37  81 N14G24    29.81R                  
IOWA FALLS *   CLOUDY    45  39  79 NW20      29.81R                  
$$

IAZ007>011-017>019-026>030-037>042-050>054-066-181600-
   NORTHEAST IOWA
  
CITY           SKY/WX    TMP DP  RH WIND       PRES   REMARKS
CEDAR RAPIDS   CLOUDY    43  38  82 NW17      29.73R                  
CHARLES CITY * CLOUDY    43  37  81 N17G28    29.77R                  
CLINTON *      CLOUDY    48  42  80 NW20      29.69R                  
DECORAH *        N/A     41  36  81 N16G24    29.72R                  
DUBUQUE        CLOUDY    45  38  76 NW16G22   29.68R                  
MONTICELLO *   CLOUDY    45  39  81 NW15      29.71R                  
OELWEIN *      CLOUDY    43  39  87 N17G26    29.75R                  
WATERLOO       CLOUDY    46  36  68 NW16G32   29.77R                  
$$
 
IAZ064-065-067-068-078-181600-
   EAST CENTRAL IOWA
  
CITY           SKY/WX    TMP DP  RH WIND       PRES   REMARKS
DAVENPORT      CLOUDY    46  40  79 NW20G28   29.71R                  
IOWA CITY      CLOUDY    46  37  71 NW18G26   29.76R                  
MT. PLEASANT * CLOUDY    46  41  81 NW13G21   29.75S                  
MUSCATINE *    CLOUDY    48  39  71 NW15      29.73S                  
QUAD CITIES    CLOUDY    49  40  71 NW16G25   29.69R                  
$$
 
IAZ062-063-075>077-085>089-095>099-181600-
   SOUTHEAST IOWA
  
CITY           SKY/WX    TMP DP  RH WIND       PRES   REMARKS
BURLINGTON     CLOUDY    46  39  76 NW16G31   29.72R                  
FAIRFIELD *    CLOUDY    46  39  76 NW18G25   29.76S                  
FORT MADISON * CLOUDY    46  43  87 NW15      29.73F                  
KEOKUK *       CLOUDY    46  41  81 NW13G23   29.73F                  
OSKALOOSA *    CLOUDY    46  37  70 N20       29.79R                  
CENTERVILLE *  PTSUNNY   46  41  81 NW20G26   29.81S                  
OTTUMWA        CLOUDY    47  37  68 NW16      29.78R                  
WASHINGTON *   CLOUDY    46  41  81 NW22      29.76R                  
$$

ABBREVIATIONS USED IN REMARKS
   TC - TEMPERATURES IN CELSIUS
  WCI - WIND CHILL INDEX
   HX - HEAT INDEX
  VSB - VISIBILITY  
$$